Location: Lewisville
(33.0462°N, 96.9942°W)
Time: 18:03:32
(UTC-06:00)

LightSail 2 - Pass Details

Date: 28 November 2019
Orbit: 703 x 721 km, 24.0° (Epoch: 17 January)

Event Time Altitude Azimuth Distance (km) Brightness Sun altitude
Rises 19:19:06 0° 226° (SW) 3,069 9.3 -24.3°
Reaches altitude 10° 19:22:10 10° 209° (SSW) 2,151 8.1 -24.9°
Enters shadow 19:25:33 19° 167° (SSE) 1,644 7.0 -25.6°
